DW6368 Weather Reports


Display with metric or nautical units.
time (UTC)temp
F
wind
direction
speed
MPH
gust
MPH
rain 1hr
in
rain 24hr
in
rain mn
in
humidity
%
barometer
mb
20190217121031 48 288 0.0 2.0 0.00 0.00 0.00 81 1017.4
20190217120520 48 288 1.0 4.0 0.00 0.00 0.00 81 1017.4
20190217120046 48 288 1.0 4.0 0.00 0.00 0.00 81 1017.5
20190217115530 48 270 2.0 4.0 0.00 0.00 0.00 81 1017.3
20190217115023 48 285 2.0 5.0 0.00 0.00 0.00 82 1017.3
20190217114533 48 274 3.0 5.0 0.00 0.00 0.00 81 1017.4
20190217114021 48 272 3.0 4.0 0.00 0.00 0.00 81 1017.4
20190217113531 48 267 2.0 4.0 0.00 0.00 0.00 81 1017.6
20190217113022 48 277 2.0 4.0 0.00 0.00 0.00 81 1017.4
20190217112530 47 299 2.0 4.0 0.00 0.00 0.00 81 1017.4
20190217112037 47 293 1.0 4.0 0.00 0.00 0.00 82 1017.5
20190217111526 47 323 1.0 3.0 0.00 0.00 0.00 81 1017.6
20190217111034 47 323 1.0 3.0 0.00 0.00 0.00 80 1017.6
20190217110521 47 333 1.0 2.0 0.00 0.00 0.00 80 1017.8
20190217110059 48 334 0.0 1.0 0.00 0.00 0.00 79 1017.7
20190217105522 48 334 0.0 2.0 0.00 0.00 0.00 79 1017.6
20190217105033 48 334 0.0 3.0 0.00 0.00 0.00 79 1017.6
20190217104524 48 332 0.0 3.0 0.00 0.00 0.00 78 1017.7
20190217104030 49 342 1.0 2.0 0.00 0.00 0.00 78 1017.8
20190217103538 49 342 1.0 2.0 0.00 0.00 0.00 78 1017.7
20190217103026 49 332 1.0 2.0 0.00 0.00 0.00 78 1017.7
20190217102520 49 335 0.0 6.0 0.00 0.00 0.00 78 1017.8
20190217102033 50 335 3.0 6.0 0.00 0.00 0.00 78 1017.9
20190217101521 50 322 0.0 3.0 0.00 0.00 0.00 78 1017.8
20190217101033 50 304 1.0 3.0 0.00 0.00 0.00 79 1017.7
20190217100519 51 304 2.0 3.0 0.00 0.00 0.00 79 1017.6
20190217100055 51 299 2.0 5.0 0.00 0.00 0.00 79 1017.7
20190217095536 51 274 3.0 5.0 0.00 0.00 0.00 79 1017.7
20190217095026 51 311 2.0 5.0 0.00 0.00 0.00 79 1017.7
20190217094536 51 290 1.0 5.0 0.00 0.00 0.00 79 1017.8
20190217094027 52 293 2.0 5.0 0.00 0.00 0.00 79 1017.9
20190217093537 52 316 2.0 10.0 0.00 0.00 0.00 79 1017.9
20190217093024 52 292 5.0 11.0 0.00 0.00 0.00 79 1017.7
20190217092533 52 298 6.0 11.0 0.00 0.00 0.00 79 1017.9
20190217092021 52 273 6.0 14.0 0.00 0.00 0.00 78 1017.9
20190217091526 52 334 5.0 14.0 0.00 0.00 0.00 78 1018.0
20190217091034 52 290 5.0 10.0 0.00 0.00 0.00 77 1017.9
20190217090521 52 302 5.0 10.0 0.00 0.00 0.00 77 1017.8
20190217090059 52 303 1.0 7.0 0.00 0.00 0.00 76 1017.9
20190217085521 52 311 4.0 7.0 0.00 0.00 0.00 75 1018.1
20190217085031 52 317 2.0 9.0 0.00 0.00 0.00 76 1018.1
20190217084518 53 307 4.0 11.0 0.00 0.00 0.00 75 1018.0
20190217084033 53 313 5.0 11.0 0.00 0.00 0.00 75 1018.1
20190217083520 53 290 5.0 16.0 0.00 0.00 0.00 75 1018.1
20190217083027 53 291 4.0 14.0 0.00 0.00 0.00 74 1018.1
20190217082536 53 15 7.0 14.0 0.00 0.00 0.00 74 1018.2
20190217082029 53 297 9.0 14.0 0.00 0.00 0.00 74 1018.1
20190217081519 53 284 6.0 16.0 0.00 0.00 0.00 74 1018.1
20190217081025 53 311 8.0 16.0 0.00 0.00 0.00 74 1018.0
20190217080537 53 264 7.0 15.0 0.00 0.00 0.00 74 1018.1
20190217080047 53 273 8.0 15.0 0.00 0.00 0.00 74 1018.1
20190217075526 53 278 7.0 15.0 0.00 0.00 0.00 74 1018.1
20190217075027 53 271 7.0 15.0 0.00 0.00 0.00 74 1018.2
20190217074517 53 277 9.0 15.0 0.00 0.00 0.00 74 1018.1
20190217074028 53 300 5.0 17.0 0.00 0.00 0.00 74 1018.1
20190217073523 53 301 11.0 17.0 0.00 0.00 0.00 74 1018.1
20190217073028 53 282 9.0 16.0 0.00 0.01 0.00 74 1018.2
20190217072538 53 281 8.0 16.0 0.00 0.01 0.00 74 1018.3
20190217072028 53 272 10.0 17.0 0.00 0.01 0.00 74 1018.3
20190217071534 53 309 10.0 18.0 0.00 0.01 0.00 74 1018.4
20190217071024 53 273 8.0 18.0 0.00 0.01 0.00 74 1018.4
20190217070535 53 288 7.0 18.0 0.00 0.01 0.00 74 1018.3
20190217070044 53 284 6.0 18.0 0.00 0.01 0.00 74 1018.3
20190217065530 53 311 10.0 21.0 0.00 0.01 0.00 73 1018.3
20190217065023 54 279 13.0 24.0 0.00 0.01 0.00 73 1018.4
20190217064534 54 279 10.0 24.0 0.00 0.01 0.00 74 1018.3
20190217064021 54 283 11.0 17.0 0.00 0.01 0.00 74 1018.3
20190217063534 54 275 11.0 17.0 0.00 0.01 0.00 74 1018.2
20190217063025 54 279 9.0 17.0 0.00 0.01 0.00 74 1018.0
20190217062527 54 263 8.0 18.0 0.00 0.01 0.00 74 1018.0
20190217062033 54 244 7.0 18.0 0.00 0.01 0.00 74 1018.2
20190217061526 54 281 9.0 14.0 0.00 0.01 0.00 74 1018.1
20190217061023 54 288 6.0 13.0 0.00 0.01 0.00 74 1018.2
20190217060536 54 266 7.0 17.0 0.00 0.01 0.00 74 1018.3
20190217060050 54 273 10.0 17.0 0.00 0.01 0.00 74 1018.4
20190217055532 54 269 9.0 18.0 0.00 0.01 0.00 73 1018.4
20190217055021 54 280 11.0 18.0 0.00 0.01 0.00 73 1018.3
20190217054525 54 296 6.0 14.0 0.00 0.01 0.00 73 1018.4
20190217054034 54 313 8.0 14.0 0.00 0.01 0.00 73 1018.4
20190217053525 54 281 8.0 14.0 0.00 0.01 0.00 73 1018.3
20190217053037 54 298 9.0 15.0 0.00 0.02 0.00 73 1018.3
20190217052526 54 257 8.0 15.0 0.00 0.02 0.00 73 1018.3
20190217052035 55 301 9.0 18.0 0.00 0.02 0.00 72 1018.3
20190217051526 55 275 9.0 21.0 0.00 0.02 0.00 73 1018.3
20190217051039 55 271 13.0 21.0 0.00 0.02 0.00 72 1018.4
20190217050525 55 308 8.0 16.0 0.00 0.02 0.00 72 1018.4
20190217050050 55 277 5.0 18.0 0.00 0.02 0.00 73 1018.5
20190217045533 55 269 9.0 18.0 0.00 0.02 0.00 73 1018.6
20190217045024 55 261 10.0 14.0 0.00 0.02 0.00 74 1018.6
20190217044536 55 258 8.0 17.0 0.00 0.02 0.00 74 1018.6
20190217044030 55 292 10.0 17.0 0.00 0.02 0.00 74 1018.5
20190217043520 55 256 10.0 23.0 0.00 0.02 0.00 74 1018.5
20190217043033 55 304 11.0 23.0 0.00 0.02 0.00 74 1018.5
20190217042521 55 288 11.0 21.0 0.00 0.02 0.00 74 1018.3
20190217042025 55 284 8.0 16.0 0.00 0.02 0.00 75 1018.4
20190217041538 55 279 10.0 17.0 0.00 0.02 0.00 75 1018.4
20190217041025 56 271 8.0 17.0 0.00 0.02 0.00 75 1018.3
20190217040516 56 284 9.0 22.0 0.00 0.02 0.00 75 1018.3
20190217040048 56 278 13.0 22.0 0.00 0.02 0.00 74 1018.2
20190217035531 56 272 8.0 17.0 0.00 0.02 0.00 75 1018.3
20190217035023 56 287 7.0 17.0 0.00 0.02 0.00 75 1018.3
20190217034535 56 322 10.0 16.0 0.00 0.02 0.00 74 1018.4
20190217034024 56 278 8.0 17.0 0.00 0.02 0.00 75 1018.3
20190217033532 56 267 11.0 18.0 0.00 0.02 0.00 75 1018.4
20190217033026 56 282 8.0 18.0 0.00 0.10 0.00 76 1018.3
20190217032530 56 277 6.0 19.0 0.00 0.10 0.00 76 1018.3
20190217032023 56 254 11.0 22.0 0.00 0.10 0.00 76 1018.4
20190217031535 56 267 13.0 22.0 0.00 0.10 0.00 75 1018.1
20190217031025 56 263 11.0 19.0 0.00 0.10 0.00 75 1018.2
20190217030536 56 271 14.0 19.0 0.00 0.10 0.00 75 1018.3
20190217030049 56 288 8.0 15.0 0.00 0.10 0.00 75 1018.3
20190217025533 56 219 7.0 13.0 0.00 0.10 0.00 75 1018.3
20190217025019 56 226 8.0 14.0 0.00 0.10 0.00 75 1018.3
20190217024531 56 262 10.0 17.0 0.00 0.10 0.00 75 1018.3
20190217024024 56 273 6.0 17.0 0.00 0.10 0.00 75 1018.2
20190217023535 56 273 8.0 13.0 0.00 0.10 0.00 75 1018.2
20190217023018 56 267 9.0 15.0 0.00 0.15 0.00 74 1018.2
20190217022526 56 266 9.0 15.0 0.00 0.15 0.00 74 1018.2
20190217022031 56 275 8.0 13.0 0.00 0.15 0.00 74 1018.1
20190217021520 56 257 7.0 18.0 0.00 0.15 0.00 74 1018.0
20190217021027 56 269 11.0 18.0 0.00 0.15 0.00 73 1017.8
20190217020515 57 275 12.0 20.0 0.00 0.15 0.00 72 1017.9
20190217020048 57 268 9.0 20.0 0.00 0.15 0.00 71 1017.9
20190217015532 57 269 8.0 16.0 0.00 0.15 0.00 70 1018.0
20190217015020 57 259 10.0 16.0 0.00 0.15 0.00 69 1018.0
20190217014530 57 272 9.0 18.0 0.00 0.15 0.00 68 1018.0
20190217014038 57 302 9.0 18.0 0.00 0.15 0.00 68 1018.0
20190217013526 57 298 10.0 16.0 0.00 0.15 0.00 68 1018.1
20190217013027 57 265 9.0 16.0 0.00 0.15 0.00 68 1018.0
20190217012516 58 247 10.0 15.0 0.00 0.15 0.00 67 1017.9
20190217012032 58 239 12.0 17.0 0.00 0.15 0.00 65 1017.9
20190217011538 58 251 8.0 18.0 0.00 0.15 0.00 63 1017.8
20190217011027 58 248 10.0 20.0 0.00 0.15 0.00 61 1017.9
20190217010521 58 250 12.0 20.0 0.00 0.15 0.00 62 1017.8
20190217010051 59 278 13.0 19.0 0.00 0.15 0.00 61 1017.7
20190217005524 59 290 14.0 19.0 0.00 0.15 0.00 60 1017.6
20190217005027 59 255 10.0 19.0 0.00 0.15 0.00 59 1017.6
20190217004535 59 291 11.0 19.0 0.00 0.15 0.00 59 1017.5
20190217004030 59 302 10.0 22.0 0.00 0.15 0.00 58 1017.5
20190217003520 59 289 13.0 22.0 0.00 0.15 0.00 57 1017.5
20190217003035 60 303 13.0 17.0 0.00 0.15 0.00 57 1017.5
20190217002525 60 294 11.0 18.0 0.00 0.15 0.00 56 1017.4
20190217002034 60 265 10.0 18.0 0.00 0.15 0.00 56 1017.5
20190217001525 60 284 12.0 20.0 0.00 0.15 0.00 57 1017.5
20190217001019 60 290 8.0 20.0 0.00 0.15 0.00 56 1017.5
20190217000524 60 263 7.0 19.0 0.00 0.15 0.00 57 1017.6
20190217000101 60 235 12.0 19.0 0.00 0.15 0.00 54 1017.7
20190216235528 61 271 14.0 18.0 0.00 0.15 0.00 54 1017.6
20190216235020 61 272 12.0 21.0 0.00 0.15 0.00 55 1017.6
20190216234527 61 274 9.0 21.0 0.00 0.15 0.00 54 1017.6
20190216234038 61 266 9.0 16.0 0.00 0.15 0.00 54 1017.6
20190216233526 61 274 12.0 16.0 0.00 0.15 0.00 53 1017.6
20190216233037 61 248 7.0 15.0 0.00 0.15 0.00 53 1017.5
20190216232528 62 275 9.0 16.0 0.00 0.15 0.00 51 1017.5
20190216232031 62 232 10.0 16.0 0.00 0.15 0.00 50 1017.4
20190216231523 62 237 5.0 13.0 0.00 0.15 0.00 52 1017.4
20190216231025 62 252 6.0 15.0 0.00 0.15 0.00 52 1017.3
20190216230520 62 263 10.0 17.0 0.00 0.15 0.00 50 1017.3
20190216230056 62 263 9.0 17.0 0.00 0.15 0.00 51 1017.3
20190216225524 62 263 7.0 16.0 0.00 0.15 0.00 49 1017.3
20190216225032 62 260 7.0 16.0 0.00 0.15 0.00 48 1017.3
20190216224538 62 315 5.0 16.0 0.00 0.15 0.00 48 1017.3
20190216224029 62 261 9.0 14.0 0.00 0.15 0.00 49 1017.4
20190216223537 62 257 7.0 16.0 0.00 0.15 0.00 50 1017.3
20190216223027 62 286 10.0 16.0 0.00 0.15 0.00 50 1017.3
20190216222537 62 313 8.0 16.0 0.00 0.15 0.00 49 1017.4
20190216222029 62 273 9.0 13.0 0.00 0.15 0.00 49 1017.4
20190216221536 62 287 7.0 14.0 0.00 0.15 0.00 51 1017.4
20190216221023 61 211 10.0 14.0 0.00 0.15 0.00 52 1017.4
20190216220534 62 278 11.0 14.0 0.00 0.15 0.00 52 1017.5
20190216220048 62 274 10.0 14.0 0.00 0.15 0.00 51 1017.6
20190216215526 62 253 7.0 14.0 0.00 0.15 0.00 51 1017.7
20190216215028 62 236 10.0 15.0 0.00 0.15 0.00 49 1017.6
20190216214532 62 257 8.0 15.0 0.00 0.15 0.00 50 1017.8
20190216214019 62 285 9.0 14.0 0.00 0.15 0.00 50 1017.8
20190216213531 62 275 10.0 14.0 0.00 0.15 0.00 49 1017.9
20190216213019 62 268 7.0 14.0 0.00 0.15 0.00 50 1018.0
20190216212529 62 278 11.0 15.0 0.00 0.15 0.00 50 1018.1
20190216212022 62 239 10.0 15.0 0.00 0.15 0.00 49 1018.2
20190216211527 62 250 7.0 16.0 0.00 0.15 0.00 49 1018.2
20190216211033 62 269 9.0 16.0 0.00 0.15 0.00 48 1018.4
20190216210522 62 268 5.0 14.0 0.00 0.15 0.00 50 1018.4
20190216210100 61 231 8.0 14.0 0.00 0.15 0.00 51 1018.6
20190216205530 61 269 7.0 14.0 0.00 0.15 0.00 50 1018.6
20190216205020 61 300 6.0 14.0 0.00 0.15 0.00 50 1018.8
20190216204533 61 274 7.0 14.0 0.00 0.15 0.00 51 1019.0
20190216204019 61 234 7.0 12.0 0.00 0.15 0.00 51 1019.1
20190216203531 61 297 5.0 12.0 0.00 0.15 0.00 51 1019.1
20190216203036 61 348 7.0 14.0 0.00 0.15 0.00 48 1019.1
20190216202527 61 247 7.0 16.0 0.00 0.15 0.00 46 1019.3
20190216202037 61 309 7.0 16.0 0.00 0.15 0.00 47 1019.3
20190216201522 61 287 8.0 14.0 0.00 0.15 0.00 45 1019.3
20190216201028 60 258 4.0 11.0 0.00 0.15 0.00 44 1019.3
20190216200537 61 278 8.0 11.0 0.00 0.15 0.00 46 1019.6
20190216200052 61 268 5.0 10.0 0.00 0.15 0.00 45 1019.7
20190216195522 61 341 6.0 13.0 0.00 0.15 0.00 46 1019.8
20190216195025 61 229 6.0 13.0 0.00 0.15 0.00 46 1019.8
20190216194534 61 264 6.0 14.0 0.00 0.15 0.00 46 1019.7
20190216194029 61 247 7.0 14.0 0.00 0.15 0.00 45 1019.8
20190216193538 61 281 3.0 10.0 0.00 0.15 0.00 47 1019.9
20190216193026 60 302 7.0 12.0 0.00 0.15 0.00 46 1020.1
20190216192536 61 255 6.0 12.0 0.00 0.15 0.00 47 1020.3
20190216192025 61 296 5.0 11.0 0.00 0.15 0.00 46 1020.3
20190216191535 60 274 2.0 12.0 0.00 0.15 0.00 46 1020.2
20190216191023 60 231 4.0 12.0 0.00 0.15 0.00 48 1020.1
20190216190524 60 238 5.0 13.0 0.00 0.15 0.00 47 1020.2
20190216190101 59 251 7.0 13.0 0.00 0.15 0.00 48 1020.2
20190216185525 59 319 5.0 10.0 0.00 0.15 0.00 48 1020.3
20190216185030 59 298 5.0 11.0 0.00 0.15 0.00 48 1020.3
20190216184538 59 260 6.0 12.0 0.00 0.15 0.00 48 1020.4
20190216184032 59 243 6.0 12.0 0.00 0.15 0.00 49 1020.5
20190216183521 58 271 4.0 11.0 0.00 0.15 0.00 50 1020.5
20190216183027 58 287 5.0 12.0 0.00 0.15 0.00 50 1020.5
20190216182532 58 270 6.0 12.0 0.00 0.15 0.00 51 1020.5
20190216182023 58 289 3.0 10.0 0.00 0.15 0.00 51 1020.5
20190216181529 58 298 5.0 11.0 0.00 0.15 0.00 51 1020.3
20190216181035 58 282 4.0 11.0 0.00 0.15 0.00 52 1020.3
20190216180522 58 274 3.0 7.0 0.00 0.15 0.00 53 1020.1
20190216180054 57 290 3.0 10.0 0.00 0.15 0.00 54 1020.2
20190216175520 57 290 6.0 14.0 0.00 0.15 0.00 53 1020.2
20190216175028 56 332 5.0 14.0 0.00 0.15 0.00 52 1020.3
20190216174530 57 282 7.0 13.0 0.00 0.15 0.00 54 1020.2
20190216174035 56 249 8.0 13.0 0.00 0.15 0.00 54 1020.4
20190216173529 56 298 5.0 12.0 0.00 0.15 0.00 54 1020.5
20190216173023 56 283 5.0 9.0 0.00 0.15 0.00 55 1020.4
20190216172522 56 285 3.0 11.0 0.00 0.15 0.00 55 1020.6
20190216172030 55 278 5.0 11.0 0.00 0.15 0.00 55 1020.7
20190216171519 55 263 5.0 11.0 0.00 0.15 0.00 58 1020.9
20190216171026 55 261 7.0 12.0 0.00 0.15 0.00 57 1020.8
20190216170528 55 315 4.0 12.0 0.00 0.15 0.00 57 1020.7
20190216170102 55 284 6.0 12.0 0.00 0.15 0.00 58 1020.8
20190216165528 54 269 4.0 11.0 0.00 0.15 0.00 59 1020.7
20190216165033 54 304 4.0 10.0 0.00 0.15 0.00 60 1020.7
20190216164522 54 315 5.0 13.0 0.00 0.15 0.00 61 1020.6
20190216164030 53 293 3.0 13.0 0.00 0.15 0.00 62 1020.8
20190216163518 53 284 4.0 13.0 0.00 0.15 0.00 63 1020.8
20190216163032 53 300 6.0 13.0 0.00 0.15 0.00 63 1020.7
20190216162538 52 277 3.0 7.0 0.00 0.15 0.00 65 1020.8
20190216162026 52 310 4.0 11.0 0.00 0.15 0.00 65 1020.8
20190216161536 52 275 7.0 12.0 0.00 0.15 0.00 65 1020.8
20190216161023 51 320 5.0 12.0 0.00 0.15 0.00 66 1020.8
20190216160529 51 292 6.0 11.0 0.00 0.15 0.00 65 1020.7
20190216160101 51 307 4.0 7.0 0.00 0.15 0.00 66 1020.8
20190216155527 51 290 5.0 10.0 0.00 0.15 0.00 66 1020.8
20190216155016 51 311 4.0 10.0 0.00 0.15 0.00 67 1020.6
20190216154524 50 291 5.0 9.0 0.00 0.15 0.00 67 1020.7
20190216154037 50 280 4.0 10.0 0.00 0.15 0.00 68 1020.6
20190216153527 50 274 3.0 10.0 0.00 0.15 0.00 68 1020.6
20190216153019 50 276 3.0 10.0 0.00 0.15 0.00 68 1020.4
20190216152528 49 327 4.0 9.0 0.00 0.15 0.00 68 1020.3
20190216152038 49 289 3.0 8.0 0.00 0.15 0.00 69 1020.1
20190216151529 49 290 3.0 9.0 0.00 0.15 0.00 70 1020.1
20190216151016 49 286 3.0 9.0 0.00 0.15 0.00 71 1020.1
20190216150528 48 296 4.0 6.0 0.00 0.15 0.00 71 1020.1
20190216150054 48 306 3.0 10.0 0.00 0.15 0.00 72 1020.0
20190216145519 48 311 2.0 10.0 0.00 0.15 0.00 72 1020.1
20190216145029 48 308 4.0 10.0 0.00 0.15 0.00 72 1019.9
20190216144520 48 293 4.0 9.0 0.00 0.15 0.00 74 1019.9
20190216144028 48 325 4.0 12.0 0.00 0.15 0.00 75 1019.9
20190216143537 48 317 7.0 12.0 0.00 0.15 0.00 76 1019.9
20190216143024 47 278 4.0 9.0 0.00 0.15 0.00 77 1019.9
20190216142533 47 286 3.0 9.0 0.00 0.15 0.00 79 1019.9
20190216142019 47 279 3.0 10.0 0.00 0.15 0.00 80 1019.9
20190216141532 47 303 4.0 10.0 0.00 0.15 0.00 81 1019.9
20190216141038 47 284 3.0 10.0 0.00 0.15 0.00 83 1019.8
20190216140525 47 280 3.0 6.0 0.00 0.15 0.00 84 1019.8
20190216140100 47 265 3.0 4.0 0.00 0.15 0.00 85 1019.7
20190216135524 47 249 2.0 3.0 0.00 0.15 0.00 85 1019.6
20190216135036 47 248 1.0 3.0 0.00 0.15 0.00 85 1019.6
20190216134523 47 248 1.0 3.0 0.00 0.15 0.00 85 1019.7
20190216134030 47 268 1.0 3.0 0.00 0.15 0.00 85 1019.6
20190216133521 47 269 1.0 3.0 0.00 0.15 0.00 85 1019.6
20190216133033 47 269 1.0 5.0 0.00 0.15 0.00 85 1019.6
20190216132520 47 269 2.0 5.0 0.00 0.15 0.00 85 1019.5
20190216132031 48 271 3.0 5.0 0.00 0.15 0.00 85 1019.4
20190216131523 47 264 3.0 5.0 0.00 0.15 0.00 86 1019.0
20190216131038 48 291 2.0 3.0 0.00 0.15 0.00 86 1019.1
20190216130530 48 292 2.0 4.0 0.00 0.15 0.00 86 1019.1
20190216130101 48 284 2.0 5.0 0.00 0.15 0.00 86 1018.9
20190216125521 48 277 3.0 5.0 0.00 0.15 0.00 87 1018.9
20190216125032 48 280 3.0 6.0 0.00 0.15 0.00 87 1018.8
20190216124523 47 297 4.0 6.0 0.00 0.15 0.00 87 1018.7
20190216124033 47 308 1.0 3.0 0.00 0.15 0.00 87 1018.7
20190216123523 47 312 0.0 3.0 0.00 0.15 0.00 87 1018.7
20190216123034 47 307 2.0 3.0 0.00 0.15 0.00 87 1018.5
20190216122524 47 312 1.0 4.0 0.00 0.15 0.00 88 1018.4
20190216122034 47 312 2.0 4.0 0.00 0.15 0.00 88 1018.1
20190216121523 47 346 1.0 3.0 0.00 0.15 0.00 87 1018.1